DECAYED

STARLINK-32111, 60073 (Decayed)

Orbit data source: Space-Track

STARLINK-32111, 60073 was a payload satellite owned by SpaceX/Seattle (US) in LEO that was launched on Wed, 19 Jun 2024 UTC via an FALCON 9 launch vehicle from the Air Force Western Test Range (AFWTR). Payload-class satellites include a variety of spacecraft equipped with specific instruments for various scientific and technological missions. These include communications satellites like Starlink; space stations such as the ISS; scientific satellites like the Hubble; Earth observation satellites from companies like Planet Labs, Umbra, and HawkEye 360; GPS; miniature CubeSats for education and research; and military/defense satellites.

Not visible in the next 10 days
Identifier
60073, 2024-113Q
Orbit
Decayed
Last TLE update
10 months ago
Origin
Manufacturer
SpaceX/Seattle
Mission
Decayed Commercial Communications
Bus & Motor
STARLINK V2M, Unknown motor
Mass
730 kg wet, ~700 kg dry
Launch date (UTC)
2024-06-19 (11 months ago)
Launch vehicle
FALCON 9
Launch site
Air Force Western Test Range (AFWTR)
Object type
Payload
Rocket body
Debris
Shape & HBR
Box + 2 Pan, 29 m
Radar Cross Section
33.884 m², Large (>1 m²)

Expand to show TLE details & history

TLE from 10 months ago
0 STARLINK-32111
1 60073U 24113Q   24194.84166843  .08576806  12535-4  42677-3 0  9996
2 60073  53.1448 289.6441 0008547 326.2462 135.8187 16.42298544  4604
Epoch: 2024-07-12T20:12Z
Definitive object data (Epoch: 2024-07-12T20:12:00.152Z)
Latitude
51.62695°
Longitude
165.17269°
Altitude
169.843 km
Speed
7.808 km/s
True Right ascension
02h 37m 32s
True Declination
51° 26' 40"
Sunlit
Object was in daylight at TLE epoch
Visualization observer readout
Visualization observer readout
Orbital elements
Apogee altitude
165.554 km
Perigee altitude
154.378 km
Semi-major axis
6,538.103 km
Eccentricity
0.0008547
Inclination
53.1448°
RAAN
289.6441°
Arg. of periapsis
326.2462°
True anomaly
135.88691°
Mean anomaly
135.8187°
Eccentric anomaly
135.85281°
Mean motion
4.10549 °/min
BSTAR
0.00042677
Orbital period
87.69 mins
Loading maneuver chart data...
Loading SW <> Apogee altitude chart data...
Loading historical data...
Loading historical data...
Loading historical data...
Loading historical data...
Loading historical data...
Loading historical data...
Loading historical data...

STARLINK-32111 Visibility forecast

Observer location: undefined°, undefined°

This satellite is decayed
Span
Click to sort rows by Start time (UTC) header in descending order
Start Az.
Max El. time (UTC)
Max El. Az.
Max El.
End time (UTC)
End Az.
|